History for Ft Lauderdale, FL

Friday, March 24, 2017 — View Current Conditions

Jump to Data:

Date:
Airport Code:
Recently Viewed Airport Codes: KFLL
Daily Summary
  Actual Average Record
Temperature
Mean Temperature 75°F 74°F  
Max Temperature 79°F 81°F 94°F (1948)
Min Temperature 70°F 67°F 45°F (1968)
Degree Days
Heating Degree Days 0 0  
Month to date heating degree days 6 7  
Since 1 July heating degree days 35 109  
Cooling Degree Days 10 9  
Month to date cooling degree days 173 191  
Year to date cooling degree days 629 547  
Growing Degree Days 24 (Base 50)    
Moisture
Dew Point 62°F    
Average Humidity 66    
Maximum Humidity 78    
Minimum Humidity 54    
Precipitation
Precipitation T in 0.10 in 1.30 in (1958)
Month to date precipitation 1.14 2.52  
Year to date precipitation 4.42 9.11  
Snow
Snow 0.00 in in in ()
Month to date snowfall 0.0  
Since 1 July snowfall 0.0  
Snow Depth 0.00 in    
Sea Level Pressure
Sea Level Pressure 30.23 in    
Wind
Wind Speed 19 mph (East)    
Max Wind Speed 26 mph    
Max Gust Speed 33 mph    
Visibility 10 miles    
Events      
T = Trace of Precipitation, MM = Missing Value Source: NWS Daily Summary

Show full METARS

(help) - Comma Delimited File

Hourly Observations

Time(EDT) Temperature Dew Point Humidity Sea Level Pressure Visibility Wind Direction Wind Speed Gust Speed Precipitation Events Conditions
12:53 AM 71.1°F 62.1°F 73% 30.25 in 10.0 miles East 23.0 mph 32.2 mph 0.00 in   Scattered Clouds
1:53 AM 71.1°F 62.1°F 73% 30.24 in 10.0 miles ENE 23.0 mph 28.8 mph N/A   Scattered Clouds
2:53 AM 71.1°F 61.0°F 70% 30.22 in 10.0 miles ENE 17.3 mph 29.9 mph N/A   Mostly Cloudy
3:53 AM 71.1°F 61.0°F 70% 30.22 in 10.0 miles East 15.0 mph 27.6 mph N/A   Mostly Cloudy
4:53 AM 71.1°F 62.1°F 73% 30.21 in 10.0 miles ENE 15.0 mph 25.3 mph N/A   Scattered Clouds
5:53 AM 71.1°F 62.1°F 73% 30.21 in 10.0 miles ENE 19.6 mph 27.6 mph N/A   Mostly Cloudy
6:53 AM 70.0°F 62.1°F 76% 30.21 in 10.0 miles ENE 17.3 mph 25.3 mph 0.00 in   Mostly Cloudy
7:53 AM 71.1°F 62.1°F 73% 30.24 in 10.0 miles ENE 16.1 mph - N/A   Mostly Cloudy
8:53 AM 72.0°F 62.1°F 71% 30.26 in 10.0 miles ENE 16.1 mph - N/A   Overcast
9:53 AM 73.9°F 62.1°F 66% 30.27 in 10.0 miles ENE 19.6 mph 27.6 mph N/A   Mostly Cloudy
10:53 AM 75.9°F 62.1°F 62% 30.28 in 10.0 miles East 24.2 mph 31.1 mph N/A   Mostly Cloudy
11:05 AM 75.9°F 62.1°F 62% 30.28 in 10.0 miles East 18.4 mph 26.5 mph N/A   Mostly Cloudy
11:53 AM 77.0°F 62.1°F 60% 30.28 in 10.0 miles East 19.6 mph 26.5 mph N/A   Scattered Clouds
12:53 PM 78.1°F 63.0°F 60% 30.27 in 10.0 miles East 20.7 mph 28.8 mph N/A   Mostly Cloudy
1:53 PM 78.1°F 62.1°F 58% 30.24 in 10.0 miles East 19.6 mph 29.9 mph N/A   Mostly Cloudy
2:53 PM 78.1°F 61.0°F 56% 30.23 in 10.0 miles East 23.0 mph 28.8 mph N/A   Mostly Cloudy
3:53 PM 78.1°F 61.0°F 56% 30.22 in 10.0 miles ENE 21.9 mph 27.6 mph N/A   Scattered Clouds
4:53 PM 77.0°F 61.0°F 58% 30.20 in 10.0 miles East 20.7 mph - N/A   Mostly Cloudy
5:53 PM 75.0°F 60.1°F 60% 30.19 in 10.0 miles East 20.7 mph - N/A   Mostly Cloudy
6:53 PM 73.9°F 60.1°F 62% 30.19 in 10.0 miles East 18.4 mph - N/A   Scattered Clouds
7:53 PM 73.0°F 61.0°F 66% 30.20 in 10.0 miles East 19.6 mph - N/A   Mostly Cloudy
8:53 PM 73.9°F 60.1°F 62% 30.21 in 10.0 miles East 18.4 mph - N/A   Mostly Cloudy
9:53 PM 73.0°F 61.0°F 66% 30.22 in 10.0 miles East 17.3 mph 24.2 mph N/A   Scattered Clouds
10:53 PM 73.0°F 61.0°F 66% 30.23 in 10.0 miles East 19.6 mph 25.3 mph N/A   Scattered Clouds
11:53 PM 73.0°F 61.0°F 66% 30.22 in 10.0 miles East 17.3 mph - N/A   Scattered Clouds